Location: Newark
(3.0500°N, 36.0167°E)
Time: 05:37:06
(UTC+00:00)

A-11 Canister half - Pass Details

Date: 30 August 2019
Orbit: 1527 x 1682 km, 47.3° (Epoch: 20 September)

Event Time Altitude Azimuth Distance (km) Brightness Sun altitude
Rises 16:20:06 0° 314° (NW) 4,914 12.7 -10.2°
Reaches altitude 10° 16:23:19 10° 311° (NW) 3,918 12.1 -11.0°
Maximum altitude 16:33:14 66° 231° (SW) 1,762 9.5 -13.5°
Drops below altitude 10° 16:42:54 10° 150° (SSE) 3,816 10.7 -15.9°
Enters shadow 16:45:16 - 148° (SSE) 4,553 11.1 -16.4°
Sets 16:46:00 0° 147° (SSE) 4,781 - -16.6°
